SAS6028 LEMG-ESMS

Flight info

Callsign SAS6028
Flight time N/A
Altitude 34000
Route BLN L27 YAKXU N871 TOPTU DCT ESISI DCT ENUPA DCT RLP DCT SUTAL/N0425F350 DCT TIVUN DCT AGATI DCT KOKOR Z706 GESKA P605 KOSMO L983 MATEK DCT DETUS
Aircraft A320/M-SDE3FGHIRWY/LB1

Departure

Time N/A
Airport Málaga-Costa del Sol Airport (LEMG)

Arrival

Time 2026-05-03 21:11
Airport Malmö Sturup Airport (ESMS)
Time Latitude Longitude Altitude Speed Heading
2026-05-03 20:15 51.02255 8.07643 36001 ft 456 kts 30°
2026-05-03 20:15 51.07702 8.12807 35992 ft 456 kts 31°
2026-05-03 20:16 51.13103 8.18094 35989 ft 456 kts 32°
2026-05-03 20:16 51.18482 8.23452 35986 ft 456 kts 32°
2026-05-03 20:17 51.23866 8.28831 35982 ft 456 kts 32°
2026-05-03 20:17 51.29254 8.34203 35980 ft 456 kts 32°
2026-05-03 20:18 51.34638 8.39578 35978 ft 456 kts 32°
2026-05-03 20:18 51.40025 8.44969 35981 ft 456 kts 32°
2026-05-03 20:19 51.45405 8.50367 35981 ft 456 kts 32°
2026-05-03 20:19 51.50784 8.55780 35983 ft 457 kts 32°
2026-05-03 20:20 51.56167 8.61215 35988 ft 457 kts 32°
2026-05-03 20:20 51.61527 8.66647 35989 ft 457 kts 32°
2026-05-03 20:21 51.66901 8.72100 35992 ft 457 kts 32°
2026-05-03 20:21 51.72268 8.77573 35989 ft 457 kts 32°
2026-05-03 20:22 51.77636 8.83077 35982 ft 457 kts 32°
2026-05-03 20:22 51.83003 8.88572 35975 ft 457 kts 32°
2026-05-03 20:23 51.88371 8.94075 35963 ft 457 kts 32°
2026-05-03 20:23 51.93728 8.99599 35946 ft 456 kts 32°
2026-05-03 20:24 51.99050 9.05101 35945 ft 457 kts 32°
2026-05-03 20:24 52.04402 9.10654 35951 ft 457 kts 32°
2026-05-03 20:25 52.09786 9.16248 35953 ft 457 kts 32°
2026-05-03 20:25 52.15137 9.21826 35952 ft 457 kts 32°
2026-05-03 20:26 52.20485 9.27419 35950 ft 457 kts 32°
2026-05-03 20:26 52.25793 9.32978 35954 ft 457 kts 32°
2026-05-03 20:27 52.31173 9.38638 35960 ft 457 kts 32°
2026-05-03 20:27 52.36475 9.44236 35960 ft 457 kts 32°
2026-05-03 20:28 52.41817 9.49882 35968 ft 457 kts 32°
2026-05-03 20:28 52.47148 9.55535 35961 ft 457 kts 32°
2026-05-03 20:29 52.52478 9.61203 35959 ft 457 kts 32°
2026-05-03 20:29 52.57812 9.66896 35962 ft 457 kts 32°
2026-05-03 20:30 52.63132 9.72593 35957 ft 456 kts 32°
2026-05-03 20:30 52.68453 9.78301 35953 ft 456 kts 32°
2026-05-03 20:31 52.73765 9.84016 35957 ft 456 kts 32°
2026-05-03 20:31 52.79076 9.89756 35945 ft 456 kts 32°
2026-05-03 20:32 52.84378 9.95502 35957 ft 456 kts 32°
2026-05-03 20:32 52.89682 10.01266 35963 ft 455 kts 32°
2026-05-03 20:33 52.95004 10.06957 35964 ft 455 kts 31°
2026-05-03 20:33 53.00395 10.12463 35965 ft 455 kts 30°
2026-05-03 20:34 53.05795 10.17951 35956 ft 455 kts 31°
2026-05-03 20:34 53.11170 10.23493 35945 ft 455 kts 31°
2026-05-03 20:35 53.16538 10.29072 35935 ft 455 kts 31°
2026-05-03 20:35 53.21894 10.34668 35924 ft 454 kts 31°
2026-05-03 20:36 53.27251 10.40264 35915 ft 454 kts 31°
2026-05-03 20:36 53.32608 10.45867 35911 ft 454 kts 31°
2026-05-03 20:37 53.37961 10.51488 35907 ft 454 kts 31°
2026-05-03 20:37 53.43310 10.57141 35544 ft 456 kts 31°
2026-05-03 20:37 53.45986 10.59974 35301 ft 452 kts 31°
2026-05-03 20:38 53.48640 10.62783 35049 ft 450 kts 31°
2026-05-03 20:38 53.51281 10.65579 34798 ft 448 kts 31°
2026-05-03 20:38 53.53909 10.68365 34557 ft 446 kts 31°
2026-05-03 20:38 53.56530 10.71147 34315 ft 445 kts 31°
2026-05-03 20:39 53.59139 10.73928 34074 ft 443 kts 32°
2026-05-03 20:39 53.61737 10.76709 33823 ft 442 kts 32°
2026-05-03 20:39 53.64326 10.79480 33554 ft 440 kts 31°
2026-05-03 20:39 53.66904 10.82237 33278 ft 438 kts 31°
2026-05-03 20:40 53.69471 10.84979 33013 ft 436 kts 31°
2026-05-03 20:40 53.72029 10.87717 32740 ft 434 kts 31°
2026-05-03 20:40 53.74570 10.90445 32473 ft 432 kts 31°
2026-05-03 20:40 53.77102 10.93166 32213 ft 430 kts 31°
2026-05-03 20:41 53.79619 10.95875 31949 ft 428 kts 31°
2026-05-03 20:41 53.82127 10.98580 31663 ft 427 kts 31°
2026-05-03 20:41 53.84633 11.01290 31273 ft 427 kts 31°
2026-05-03 20:41 53.87129 11.03994 30893 ft 426 kts 31°
2026-05-03 20:42 53.89624 11.06698 30521 ft 426 kts 32°
2026-05-03 20:42 53.92118 11.09402 30151 ft 425 kts 32°
2026-05-03 20:42 53.94612 11.12111 29762 ft 425 kts 31°
2026-05-03 20:42 53.97099 11.14815 29336 ft 425 kts 31°
2026-05-03 20:43 53.99588 11.17522 28912 ft 424 kts 31°
2026-05-03 20:43 54.02070 11.20230 28499 ft 424 kts 31°
2026-05-03 20:43 54.04549 11.22937 28089 ft 423 kts 31°
2026-05-03 20:43 54.07025 11.25642 27683 ft 423 kts 31°
2026-05-03 20:44 54.09495 11.28343 27300 ft 422 kts 31°
2026-05-03 20:44 54.11962 11.31050 26912 ft 421 kts 31°
2026-05-03 20:44 54.14424 11.33758 26513 ft 421 kts 31°
2026-05-03 20:44 54.16882 11.36468 26134 ft 420 kts 31°
2026-05-03 20:45 54.18510 11.38265 25888 ft 420 kts 31°
2026-05-03 20:45 54.20956 11.40964 25514 ft 419 kts 31°
2026-05-03 20:45 54.23398 11.43662 25148 ft 418 kts 31°
2026-05-03 20:45 54.25842 11.46368 24786 ft 417 kts 31°
2026-05-03 20:46 54.28271 11.49059 24429 ft 415 kts 31°
2026-05-03 20:46 54.30690 11.51742 24078 ft 414 kts 31°
2026-05-03 20:46 54.33096 11.54415 23840 ft 409 kts 31°
2026-05-03 20:46 54.35447 11.57032 23843 ft 396 kts 31°
2026-05-03 20:47 54.37714 11.59561 23837 ft 383 kts 31°
2026-05-03 20:47 54.39929 11.62037 23841 ft 378 kts 31°
2026-05-03 20:47 54.42130 11.64499 23843 ft 377 kts 31°
2026-05-03 20:47 54.44326 11.66958 23838 ft 377 kts 31°
2026-05-03 20:48 54.46473 11.69549 23839 ft 378 kts 38°
2026-05-03 20:48 54.48438 11.72552 23836 ft 378 kts 41°
2026-05-03 20:48 54.50391 11.75585 23831 ft 378 kts 41°
2026-05-03 20:48 54.52344 11.78613 23844 ft 378 kts 41°
2026-05-03 20:49 54.54300 11.81642 23813 ft 379 kts 41°
2026-05-03 20:49 54.56261 11.84681 23483 ft 379 kts 41°
2026-05-03 20:49 54.58218 11.87723 23093 ft 378 kts 41°
2026-05-03 20:49 54.60171 11.90765 22677 ft 378 kts 41°
2026-05-03 20:50 54.62076 11.93872 22271 ft 377 kts 47°
2026-05-03 20:50 54.63805 11.97276 21882 ft 376 kts 49°
2026-05-03 20:50 54.65522 12.00677 21489 ft 376 kts 49°
2026-05-03 20:50 54.67239 12.04078 21106 ft 375 kts 49°
2026-05-03 20:51 54.68949 12.07471 20721 ft 374 kts 49°
2026-05-03 20:51 54.70657 12.10868 20252 ft 376 kts 49°
2026-05-03 20:51 54.72380 12.14299 19751 ft 379 kts 49°
2026-05-03 20:51 54.74115 12.17755 19277 ft 381 kts 49°
2026-05-03 20:52 54.75856 12.21230 18798 ft 383 kts 49°
2026-05-03 20:52 54.77741 12.24499 18327 ft 384 kts 43°
2026-05-03 20:52 54.79594 12.27842 17822 ft 386 kts 48°
2026-05-03 20:52 54.81329 12.31404 17280 ft 387 kts 51°
2026-05-03 20:53 54.83012 12.35047 16769 ft 387 kts 52°
2026-05-03 20:53 54.84696 12.38701 16245 ft 388 kts 51°
2026-05-03 20:53 54.86400 12.42325 15739 ft 388 kts 51°
2026-05-03 20:53 54.88127 12.45906 15229 ft 382 kts 50°
2026-05-03 20:54 54.89821 12.49351 14742 ft 370 kts 50°
2026-05-03 20:54 54.93088 12.55914 14091 ft 351 kts 50°
2026-05-03 20:54 54.94707 12.59056 13854 ft 347 kts 47°
2026-05-03 20:55 54.96385 12.62052 13558 ft 345 kts 45°
2026-05-03 20:55 54.98102 12.64974 13186 ft 345 kts 44°
2026-05-03 20:55 54.99835 12.67870 12817 ft 345 kts 44°
2026-05-03 20:55 55.01562 12.70763 12457 ft 344 kts 44°
2026-05-03 20:56 55.03278 12.73666 12129 ft 343 kts 45°
2026-05-03 20:56 55.04972 12.76564 11864 ft 339 kts 45°
2026-05-03 20:56 55.06643 12.79443 11605 ft 336 kts 45°
2026-05-03 20:56 55.08290 12.82300 11354 ft 332 kts 45°
2026-05-03 20:57 55.09934 12.85158 10931 ft 336 kts 45°
2026-05-03 20:57 55.11596 12.88053 10511 ft 339 kts 45°
2026-05-03 20:57 55.13270 12.90966 10145 ft 339 kts 45°
2026-05-03 20:57 55.14943 12.93877 9792 ft 340 kts 45°
2026-05-03 20:58 55.16618 12.96794 9397 ft 340 kts 45°
2026-05-03 20:58 55.18287 12.99714 9007 ft 340 kts 45°
2026-05-03 20:58 55.19955 13.02643 8619 ft 339 kts 45°
2026-05-03 20:58 55.21618 13.05570 8245 ft 338 kts 45°
2026-05-03 20:59 55.23397 13.08213 7993 ft 333 kts 32°
2026-05-03 20:59 55.25421 13.10073 7741 ft 326 kts 19°
2026-05-03 20:59 55.27581 13.11105 7492 ft 318 kts
2026-05-03 20:59 55.29753 13.11595 7249 ft 313 kts
2026-05-03 21:00 55.31903 13.12069 7002 ft 309 kts
2026-05-03 21:00 55.33334 13.12386 6886 ft 304 kts
2026-05-03 21:00 55.36051 13.12996 6838 ft 289 kts
2026-05-03 21:00 55.37999 13.13439 6843 ft 276 kts
2026-05-03 21:01 55.39857 13.13861 6842 ft 263 kts
2026-05-03 21:01 55.41662 13.14268 6837 ft 261 kts
2026-05-03 21:01 55.43467 13.14673 6602 ft 261 kts
2026-05-03 21:01 55.45262 13.15078 6360 ft 259 kts
2026-05-03 21:02 55.47042 13.15479 6097 ft 258 kts
2026-05-03 21:02 55.48829 13.15878 5720 ft 261 kts
2026-05-03 21:02 55.50645 13.16285 5362 ft 263 kts
2026-05-03 21:02 55.52450 13.16693 5115 ft 261 kts
2026-05-03 21:03 55.54241 13.17098 4870 ft 258 kts
2026-05-03 21:03 55.56006 13.17496 4689 ft 252 kts
2026-05-03 21:03 55.57718 13.17883 4562 ft 244 kts
2026-05-03 21:03 55.59389 13.18266 4436 ft 241 kts
2026-05-03 21:04 55.61046 13.18644 4305 ft 240 kts
2026-05-03 21:04 55.62693 13.19020 4179 ft 238 kts
2026-05-03 21:04 55.64329 13.19392 4058 ft 236 kts
2026-05-03 21:04 55.65952 13.19763 3930 ft 235 kts
2026-05-03 21:05 55.67566 13.20131 3810 ft 234 kts
2026-05-03 21:05 55.69176 13.20508 3680 ft 233 kts
2026-05-03 21:05 55.70726 13.21327 3561 ft 233 kts 24°
2026-05-03 21:05 55.72133 13.22739 3434 ft 232 kts 38°
2026-05-03 21:06 55.73234 13.24770 3311 ft 227 kts 61°
2026-05-03 21:06 55.73803 13.27332 3186 ft 222 kts 85°
2026-05-03 21:06 55.73769 13.30001 3067 ft 214 kts 108°
2026-05-03 21:06 55.73191 13.32374 2932 ft 207 kts 130°
2026-05-03 21:07 55.72194 13.34143 2805 ft 202 kts 150°
2026-05-03 21:07 55.70931 13.35146 2687 ft 198 kts 169°
2026-05-03 21:07 55.69587 13.35218 2589 ft 188 kts 197°
2026-05-03 21:07 55.68382 13.34601 2512 ft 175 kts 185°
2026-05-03 21:08 55.67233 13.34879 2495 ft 160 kts 175°
2026-05-03 21:08 55.66165 13.35072 2403 ft 150 kts 176°
2026-05-03 21:08 55.65146 13.35261 2241 ft 145 kts 176°
2026-05-03 21:08 55.64160 13.35455 2074 ft 141 kts 175°
2026-05-03 21:09 55.63190 13.35651 1890 ft 139 kts 174°
2026-05-03 21:09 55.62231 13.35847 1713 ft 139 kts 174°
2026-05-03 21:09 55.61278 13.36043 1550 ft 136 kts 173°
2026-05-03 21:09 55.60344 13.36235 1356 ft 133 kts 173°
2026-05-03 21:10 55.59427 13.36424 1167 ft 133 kts 174°
2026-05-03 21:10 55.58501 13.36614 983 ft 135 kts 173°
2026-05-03 21:10 55.57570 13.36796 796 ft 134 kts 172°
2026-05-03 21:10 55.56638 13.36986 629 ft 135 kts 172°
2026-05-03 21:11 55.55711 13.37180 417 ft 134 kts 172°
2026-05-03 21:11 55.54791 13.37381 270 ft 132 kts 172°
2026-05-03 21:11 55.53912 13.37552 233 ft 113 kts 171°
2026-05-03 21:11 55.53373 13.37673 233 ft 42 kts 173°
2026-05-03 21:12 55.53101 13.37726 238 ft 24 kts 173°
2026-05-03 21:12 55.52994 13.37716 239 ft 15 kts 225°
2026-05-03 21:12 55.52972 13.37542 238 ft 12 kts 265°
2026-05-03 21:12 55.53029 13.37453 237 ft 14 kts 352°
2026-05-03 21:13 55.53133 13.37430 236 ft 16 kts 353°
2026-05-03 21:13 55.53253 13.37407 236 ft 18 kts 352°
2026-05-03 21:13 55.53381 13.37380 233 ft 18 kts 354°
2026-05-03 21:13 55.53511 13.37352 232 ft 20 kts 354°
2026-05-03 21:14 55.53655 13.37328 230 ft 22 kts 354°
2026-05-03 21:14 55.53805 13.37290 230 ft 20 kts 352°
2026-05-03 21:14 55.53935 13.37259 227 ft 14 kts 340°
2026-05-03 21:14 55.53955 13.37119 227 ft 13 kts 259°
2026-05-03 21:15 55.53949 13.36958 227 ft 14 kts 266°
2026-05-03 21:15 55.53941 13.36831 227 ft 6 kts 271°
2026-05-03 21:15 55.53966 13.36797 227 ft 1 kts
2026-05-03 21:15 55.53979 13.36793 227 ft 3 kts 351°
2026-05-03 21:16 55.54000 13.36788 227 ft 1 kts 352°
2026-05-03 21:16 55.54007 13.36786 227 ft 1 kts 353°
2026-05-03 21:16 55.54008 13.36786 227 ft 0 kts 353°